Simultaneous Nadir Overpasses (SNOs) Predictions

Prediction of SNOs between AQUA and NPP Satellite Orbit:

Table of predicted SNOs for the next 14.0 days since TLE Epoch: 5/2/2013
Index Date (AQUA) Time (AQUA) Lat,Lon (AQUA) SZA (AQUA ) Date (NPP) Time (NPP) Lat,Lon (NPP) SZA (NPP ) Distance(km) Time Diff (sec)
1 05/02/2013 22:39:07 -76.05,-100.47 98.35 05/02/2013 22:38:04 -76.06,-100.45 98.30 0.76 63
2 05/02/2013 23:28:16 76.85, 69.82 80.72 05/02/2013 23:28:31 76.84, 69.78 80.71 1.08 15
3 05/05/2013 14:55:28 -76.26, 16.09 99.36 05/05/2013 14:54:56 -76.26, 16.02 99.32 1.96 32
4 05/05/2013 15:44:31 77.32,-172.48 79.37 05/05/2013 15:45:16 77.33,-172.38 79.31 2.58 45
5 05/08/2013 06:25:31 66.28, -53.30 90.49 05/08/2013 06:24:18 66.46, -54.49 90.74 56.65 73
6 05/08/2013
